GROUP/SHIP,CRUISE_DESIGNATION,JD_GMT,DATE_DDMMYYYY,TIME_HH:MM:SS,LAT_DEC_DEGREE,LONG_DEC_DEGREE,xCO2W_PPM,xCO2A_PPM,xCO2A_INTERPOLATED_PPM,PRES_EQUIL_hPa,PRES_SEALEVEL_hPa,EqTEMP_C,SST(TSG)_C,SAL(TSG)_PERMIL,fCO2W@SST_uATM,fCO2A_uATM,dfCO2_uATM,QC_FLAG,QC_SUBFLAG
AOML/SKOGAFOSS,SKO604,93.565,3042006,13:34:01,63.991,-22.992,381.66,-9,-9,1025.9,-9,7.29,6.44,34.87,367.62,0,367.62,3,11
AOML/SKOGAFOSS,SKO604,93.567,3042006,13:36:45,63.984,-23.008,354.3,-9,-9,1026.05,-9,7.26,6.43,34.88,341.59,0,341.59,3,11
AOML/SKOGAFOSS,SKO604,93.569,3042006,13:39:29,63.978,-23.024,352.35,-9,-9,1025.56,-9,7.22,6.41,34.89,339.96,0,339.96,3,11
AOML/SKOGAFOSS,SKO604,93.571,3042006,13:42:13,63.971,-23.04,353.83,-9,-9,1025.62,-9,7.13,6.34,34.89,341.57,0,341.57,3,11
AOML/SKOGAFOSS,SKO604,93.573,3042006,13:44:57,63.964,-23.055,351.01,-9,-9,1025.37,-9,7.1,6.33,34.9,339.08,0,339.08,3,11
AOML/SKOGAFOSS,SKO604,93.575,3042006,13:47:41,63.957,-23.07,350.41,-9,-9,1026.13,-9,7.09,6.32,34.91,338.83,0,338.83,3,11
AOML/SKOGAFOSS,SKO604,93.577,3042006,13:50:25,63.95,-23.086,350.49,-9,-9,1025.12,-9,7.13,6.36,34.92,338.6,0,338.6,3,11
AOML/SKOGAFOSS,SKO604,93.579,3042006,13:53:09,63.943,-23.1,352.47,-9,-9,1025.76,-9,7.16,6.41,34.94,340.92,0,340.92,3,11
AOML/SKOGAFOSS,SKO604,93.58,3042006,13:55:53,63.937,-23.115,353.24,-9,-9,1024.99,-9,7.15,6.39,34.96,341.33,0,341.33,3,11
AOML/SKOGAFOSS,SKO604,93.582,3042006,13:58:37,63.93,-23.13,348.27,-9,-9,1024.99,-9,7.05,6.28,34.93,336.42,0,336.42,3,11
AOML/SKOGAFOSS,SKO604,93.584,3042006,14:01:21,63.924,-23.144,346.17,-9,-9,1025.16,-9,7.06,6.3,34.92,334.56,0,334.56,3,11
AOML/SKOGAFOSS,SKO604,93.586,3042006,14:04:05,63.917,-23.158,352.81,-9,-9,1025.45,-9,7.35,6.61,35.02,341.26,0,341.26,3,11
AOML/SKOGAFOSS,SKO604,93.588,3042006,14:06:48,63.911,-23.172,361.44,-9,-9,1025.34,-9,7.35,6.61,35.03,349.59,0,349.59,3,11
AOML/SKOGAFOSS,SKO604,93.59,3042006,14:09:32,63.904,-23.187,366.38,-9,-9,1025.29,-9,7.46,6.72,35.05,354.35,0,354.35,3,11
AOML/SKOGAFOSS,SKO604,93.592,3042006,14:12:16,63.898,-23.201,370.46,-9,-9,1025.65,-9,7.51,6.78,35.07,358.48,0,358.48,3,11
AOML/SKOGAFOSS,SKO604,93.594,3042006,14:15:00,63.891,-23.216,372.35,-9,-9,1025.67,-9,7.56,6.82,35.08,360.25,0,360.25,3,11
AOML/SKOGAFOSS,SKO604,93.596,3042006,14:17:44,63.885,-23.231,373.47,-9,-9,1025.15,-9,7.57,6.82,35.09,361,0,361,3,11
AOML/SKOGAFOSS,SKO604,93.598,3042006,14:20:28,63.879,-23.246,368.08,-9,-9,1025.69,-9,7.4,6.6,35.06,355.29,0,355.29,3,11
AOML/SKOGAFOSS,SKO604,93.599,3042006,14:23:12,63.872,-23.26,359.73,-9,-9,1025.99,-9,7.3,6.55,34.99,348.06,0,348.06,3,11
AOML/SKOGAFOSS,SKO604,93.601,3042006,14:25:56,63.866,-23.275,358.53,-9,-9,1025.23,-9,7.33,6.57,35,346.48,0,346.48,3,11
AOML/SKOGAFOSS,SKO604,93.62,3042006,14:53:05,63.802,-23.417,-9,386.74,-9,1026.03,-9,7.5,6.73,35.13,-9,386.18,-9,3,11
AOML/SKOGAFOSS,SKO604,93.621,3042006,14:54:51,63.798,-23.427,-9,386.86,-9,1026.22,-9,7.48,6.72,35.13,-9,386.38,-9,3,11
AOML/SKOGAFOSS,SKO604,93.625,3042006,14:59:31,63.788,-23.451,373.32,-9,-9,1026.01,-9,7.49,6.74,35.12,361.16,0,361.16,3,11
AOML/SKOGAFOSS,SKO604,93.627,3042006,15:02:15,63.781,-23.465,374.29,-9,-9,1025.86,-9,7.51,6.76,35.13,362.01,0,362.01,3,11
AOML/SKOGAFOSS,SKO604,93.628,3042006,15:04:58,63.775,-23.48,374.52,-9,-9,1025.6,-9,7.51,6.78,35.13,362.38,0,362.38,3,11
AOML/SKOGAFOSS,SKO604,93.63,3042006,15:07:42,63.769,-23.494,374.99,-9,-9,1025.62,-9,7.52,6.78,35.13,362.7,0,362.7,3,11
AOML/SKOGAFOSS,SKO604,93.632,3042006,15:10:26,63.762,-23.509,375.09,-9,-9,1025.97,-9,7.54,6.79,35.13,362.77,0,362.77,3,11
AOML/SKOGAFOSS,SKO604,93.634,3042006,15:13:10,63.756,-23.524,375,-9,-9,1026.06,-9,7.55,6.79,35.13,362.66,0,362.66,3,11
AOML/SKOGAFOSS,SKO604,93.636,3042006,15:15:54,63.75,-23.538,375.05,-9,-9,1025.5,-9,7.53,6.79,35.12,362.81,0,362.81,3,11
AOML/SKOGAFOSS,SKO604,93.638,3042006,15:18:38,63.743,-23.552,374.77,-9,-9,1025.61,-9,7.59,6.86,35.12,362.71,0,362.71,3,11
AOML/SKOGAFOSS,SKO604,93.64,3042006,15:21:22,63.737,-23.566,375.13,-9,-9,1026.01,-9,7.63,6.89,35.13,363.03,0,363.03,3,11
AOML/SKOGAFOSS,SKO604,93.642,3042006,15:24:06,63.73,-23.58,374.99,-9,-9,1025.78,-9,7.72,6.98,35.14,362.74,0,362.74,3,11
AOML/SKOGAFOSS,SKO604,93.644,3042006,15:26:50,63.724,-23.594,375.83,-9,-9,1025.96,-9,7.74,7,35.14,363.62,0,363.62,3,11
AOML/SKOGAFOSS,SKO604,93.646,3042006,15:29:34,63.718,-23.608,376.79,-9,-9,1025.89,-9,7.75,7.02,35.14,364.71,0,364.71,3,11
AOML/SKOGAFOSS,SKO604,93.647,3042006,15:32:18,63.711,-23.623,377.32,-9,-9,1025.77,-9,7.77,7.03,35.14,365.02,0,365.02,3,11
AOML/SKOGAFOSS,SKO604,93.649,3042006,15:35:02,63.705,-23.637,377.24,-9,-9,1026.24,-9,7.77,7.02,35.14,364.92,0,364.92,3,11
AOML/SKOGAFOSS,SKO604,93.651,3042006,15:37:46,63.698,-23.653,377.36,-9,-9,1026.45,-9,7.77,7.02,35.14,365.15,0,365.15,3,11
AOML/SKOGAFOSS,SKO604,93.653,3042006,15:40:30,63.692,-23.668,377.5,-9,-9,1026.38,-9,7.76,7.02,35.14,365.37,0,365.37,3,11
AOML/SKOGAFOSS,SKO604,93.655,3042006,15:43:14,63.685,-23.683,376.64,-9,-9,1025.95,-9,7.73,6.97,35.14,364.14,0,364.14,3,11
AOML/SKOGAFOSS,SKO604,93.657,3042006,15:45:58,63.679,-23.697,375.82,-9,-9,1025.96,-9,7.66,6.91,35.14,363.44,0,363.44,3,11
AOML/SKOGAFOSS,SKO604,93.659,3042006,15:48:42,63.672,-23.712,375.53,-9,-9,1026,-9,7.67,6.93,35.13,363.33,0,363.33,3,11
AOML/SKOGAFOSS,SKO604,93.661,3042006,15:51:26,63.666,-23.727,376.13,-9,-9,1026.17,-9,7.7,6.97,35.14,364.15,0,364.15,3,11
AOML/SKOGAFOSS,SKO604,93.663,3042006,15:54:10,63.66,-23.741,376.7,-9,-9,1025.94,-9,7.71,6.98,35.14,364.68,0,364.68,3,11
AOML/SKOGAFOSS,SKO604,93.665,3042006,15:56:54,63.654,-23.757,377.14,-9,-9,1025.83,-9,7.74,6.99,35.14,364.7,0,364.7,3,11
AOML/SKOGAFOSS,SKO604,93.666,3042006,15:59:37,63.647,-23.771,377.49,-9,-9,1025.81,-9,7.74,6.98,35.14,364.92,0,364.92,3,11
AOML/SKOGAFOSS,SKO604,93.668,3042006,16:02:21,63.64,-23.785,377.52,-9,-9,1026.17,-9,7.72,6.97,35.14,365.25,0,365.25,3,11
AOML/SKOGAFOSS,SKO604,93.67,3042006,16:05:05,63.634,-23.799,377.42,-9,-9,1025.65,-9,7.7,6.96,35.14,365.14,0,365.14,3,11
AOML/SKOGAFOSS,SKO604,93.672,3042006,16:07:49,63.627,-23.813,372.49,-9,-9,1026.02,-9,7.7,6.96,35.14,360.42,0,360.42,3,11
AOML/SKOGAFOSS,SKO604,93.674,3042006,16:10:33,63.62,-23.827,374.91,-9,-9,1025.84,-9,7.68,6.92,35.14,362.46,0,362.46,3,11
AOML/SKOGAFOSS,SKO604,93.676,3042006,16:13:17,63.613,-23.841,374.88,-9,-9,1025.91,-9,7.69,6.94,35.14,362.59,0,362.59,3,11
AOML/SKOGAFOSS,SKO604,93.678,3042006,16:16:01,63.607,-23.855,375.21,-9,-9,1026.13,-9,7.69,6.97,35.14,363.37,0,363.37,3,11
AOML/SKOGAFOSS,SKO604,93.68,3042006,16:18:45,63.6,-23.869,375.67,-9,-9,1025.71,-9,7.71,6.97,35.14,363.44,0,363.44,3,11
AOML/SKOGAFOSS,SKO604,93.682,3042006,16:21:29,63.594,-23.883,375.57,-9,-9,1025.71,-9,7.71,6.96,35.14,363.1,0,363.1,3,11
AOML/SKOGAFOSS,SKO604,93.683,3042006,16:24:13,63.587,-23.898,375.27,-9,-9,1026.05,-9,7.7,6.95,35.14,362.92,0,362.92,3,11
AOML/SKOGAFOSS,SKO604,93.685,3042006,16:26:57,63.58,-23.912,375.13,-9,-9,1026.1,-9,7.66,6.9,35.14,362.72,0,362.72,3,11
AOML/SKOGAFOSS,SKO604,93.687,3042006,16:29:41,63.574,-23.926,374.95,-9,-9,1025.5,-9,7.65,6.91,35.13,362.59,0,362.59,3,11
AOML/SKOGAFOSS,SKO604,93.689,3042006,16:32:25,63.567,-23.94,374.58,-9,-9,1026.06,-9,7.63,6.89,35.13,362.42,0,362.42,3,11
AOML/SKOGAFOSS,SKO604,93.691,3042006,16:35:09,63.561,-23.954,374.19,-9,-9,1026.39,-9,7.66,6.93,35.12,362.38,0,362.38,3,11
AOML/SKOGAFOSS,SKO604,93.693,3042006,16:37:53,63.554,-23.968,374.89,-9,-9,1026.01,-9,7.72,6.97,35.13,362.53,0,362.53,3,11
AOML/SKOGAFOSS,SKO604,93.695,3042006,16:40:37,63.548,-23.982,375.39,-9,-9,1025.98,-9,7.71,6.98,35.13,363.32,0,363.32,3,11
AOML/SKOGAFOSS,SKO604,93.697,3042006,16:43:21,63.541,-23.997,375.88,-9,-9,1026.23,-9,7.72,6.98,35.13,363.73,0,363.73,3,11
AOML/SKOGAFOSS,SKO604,93.699,3042006,16:46:05,63.534,-24.012,376.28,-9,-9,1026.03,-9,7.71,6.96,35.13,363.94,0,363.94,3,11
AOML/SKOGAFOSS,SKO604,93.701,3042006,16:48:49,63.527,-24.026,376.17,-9,-9,1026.33,-9,7.72,6.96,35.13,363.87,0,363.87,3,11
AOML/SKOGAFOSS,SKO604,93.702,3042006,16:51:33,63.521,-24.041,376.31,-9,-9,1025.72,-9,7.73,6.98,35.13,363.93,0,363.93,3,11
AOML/SKOGAFOSS,SKO604,93.704,3042006,16:54:16,63.514,-24.055,376.73,-9,-9,1025.85,-9,7.71,6.97,35.13,364.43,0,364.43,3,11
AOML/SKOGAFOSS,SKO604,93.706,3042006,16:57:00,63.507,-24.07,376.21,-9,-9,1025.84,-9,7.64,6.88,35.13,363.66,0,363.66,3,11
AOML/SKOGAFOSS,SKO604,93.708,3042006,16:59:44,63.501,-24.084,375.83,-9,-9,1025.82,-9,7.62,6.87,35.13,363.39,0,363.39,3,11
AOML/SKOGAFOSS,SKO604,93.726,3042006,17:25:07,63.437,-24.223,-9,385.7,-9,1025.96,-9,7.72,6.98,35.13,-9,385.06,-9,3,11
AOML/SKOGAFOSS,SKO604,93.731,3042006,17:33:19,63.417,-24.267,377.74,-9,-9,1026.3,-9,7.82,7.07,35.13,365.46,0,365.46,3,11
AOML/SKOGAFOSS,SKO604,93.733,3042006,17:36:03,63.41,-24.282,378.09,-9,-9,1026.02,-9,7.83,7.1,35.13,365.93,0,365.93,3,11
AOML/SKOGAFOSS,SKO604,93.735,3042006,17:38:47,63.403,-24.296,377.79,-9,-9,1025.95,-9,7.84,7.11,35.14,365.64,0,365.64,3,11
AOML/SKOGAFOSS,SKO604,93.737,3042006,17:41:31,63.396,-24.311,377.99,-9,-9,1026.13,-9,7.84,7.09,35.14,365.69,0,365.69,3,11
AOML/SKOGAFOSS,SKO604,93.739,3042006,17:44:15,63.39,-24.325,378.1,-9,-9,1026.03,-9,7.77,7.02,35.13,365.66,0,365.66,3,11
AOML/SKOGAFOSS,SKO604,93.741,3042006,17:46:59,63.383,-24.34,377.85,-9,-9,1026.11,-9,7.8,7.05,35.13,365.42,0,365.42,3,11
AOML/SKOGAFOSS,SKO604,93.743,3042006,17:49:43,63.376,-24.355,378.5,-9,-9,1026.28,-9,7.79,7.06,35.13,366.46,0,366.46,3,11
AOML/SKOGAFOSS,SKO604,93.745,3042006,17:52:27,63.368,-24.37,380.02,-9,-9,1026.02,-9,7.91,7.19,35.12,367.99,0,367.99,3,11
AOML/SKOGAFOSS,SKO604,93.747,3042006,17:55:11,63.361,-24.385,382.43,-9,-9,1025.84,-9,7.97,7.23,35.13,369.96,0,369.96,3,11
AOML/SKOGAFOSS,SKO604,93.749,3042006,17:57:54,63.354,-24.4,383.27,-9,-9,1026.29,-9,7.99,7.24,35.13,370.68,0,370.68,3,11
AOML/SKOGAFOSS,SKO604,93.75,3042006,18:00:38,63.348,-24.415,383.09,-9,-9,1026.11,-9,7.99,7.24,35.13,370.56,0,370.56,3,11
AOML/SKOGAFOSS,SKO604,93.752,3042006,18:03:22,63.341,-24.43,383.11,-9,-9,1025.97,-9,7.98,7.23,35.13,370.54,0,370.54,3,11
AOML/SKOGAFOSS,SKO604,93.754,3042006,18:06:07,63.334,-24.445,382.61,-9,-9,1026.26,-9,7.99,7.27,35.13,370.5,0,370.5,3,11
AOML/SKOGAFOSS,SKO604,93.756,3042006,18:08:50,63.327,-24.46,382.87,-9,-9,1026,-9,8.02,7.28,35.14,370.33,0,370.33,3,11
AOML/SKOGAFOSS,SKO604,93.758,3042006,18:11:34,63.32,-24.475,383.31,-9,-9,1026.29,-9,8.04,7.27,35.14,370.51,0,370.51,3,11
AOML/SKOGAFOSS,SKO604,93.76,3042006,18:14:18,63.313,-24.49,383.56,-9,-9,1026.16,-9,7.99,7.24,35.13,371.04,0,371.04,3,11
AOML/SKOGAFOSS,SKO604,93.762,3042006,18:17:02,63.306,-24.505,383.58,-9,-9,1026.11,-9,8.01,7.26,35.13,371.04,0,371.04,3,11
AOML/SKOGAFOSS,SKO604,93.764,3042006,18:19:46,63.299,-24.52,383.63,-9,-9,1026.22,-9,8.06,7.31,35.13,371.06,0,371.06,3,11
AOML/SKOGAFOSS,SKO604,93.766,3042006,18:22:30,63.293,-24.535,383.81,-9,-9,1026.21,-9,8.07,7.31,35.14,371.09,0,371.09,3,11
AOML/SKOGAFOSS,SKO604,93.768,3042006,18:25:14,63.286,-24.551,383.52,-9,-9,1026.45,-9,8.02,7.26,35.13,370.87,0,370.87,3,11
AOML/SKOGAFOSS,SKO604,93.769,3042006,18:27:58,63.279,-24.566,384.29,-9,-9,1026.41,-9,8.04,7.29,35.14,371.83,0,371.83,3,11
AOML/SKOGAFOSS,SKO604,93.771,3042006,18:30:42,63.272,-24.581,384.82,-9,-9,1026.19,-9,8,7.25,35.13,372.23,0,372.23,3,11
AOML/SKOGAFOSS,SKO604,93.773,3042006,18:33:26,63.265,-24.596,386.73,-9,-9,1026.36,-9,8.1,7.35,35.13,374.11,0,374.11,3,11
AOML/SKOGAFOSS,SKO604,93.775,3042006,18:36:10,63.258,-24.611,388.03,-9,-9,1026.4,-9,8.11,7.36,35.13,375.4,0,375.4,3,11
AOML/SKOGAFOSS,SKO604,93.777,3042006,18:38:54,63.251,-24.625,388.2,-9,-9,1026.27,-9,8.1,7.37,35.13,375.73,0,375.73,3,11
AOML/SKOGAFOSS,SKO604,93.779,3042006,18:41:38,63.244,-24.64,388.34,-9,-9,1026.43,-9,8.13,7.38,35.13,375.59,0,375.59,3,11
AOML/SKOGAFOSS,SKO604,93.781,3042006,18:44:22,63.238,-24.655,388.23,-9,-9,1026.2,-9,8.13,7.37,35.13,375.38,0,375.38,3,11
AOML/SKOGAFOSS,SKO604,93.783,3042006,18:47:06,63.231,-24.671,388.35,-9,-9,1026.31,-9,8.13,7.37,35.13,375.4,0,375.4,3,11
AOML/SKOGAFOSS,SKO604,93.785,3042006,18:49:50,63.224,-24.686,388.48,-9,-9,1025.95,-9,8.12,7.37,35.13,375.63,0,375.63,3,11
AOML/SKOGAFOSS,SKO604,93.787,3042006,18:52:34,63.217,-24.701,388.11,-9,-9,1026.44,-9,8.12,7.37,35.13,375.52,0,375.52,3,11
AOML/SKOGAFOSS,SKO604,93.788,3042006,18:55:17,63.21,-24.717,388.21,-9,-9,1026.31,-9,8.13,7.37,35.13,375.28,0,375.28,3,11
AOML/SKOGAFOSS,SKO604,93.79,3042006,18:58:01,63.203,-24.732,387.81,-9,-9,1026.08,-9,8.11,7.33,35.14,374.52,0,374.52,3,11
AOML/SKOGAFOSS,SKO604,93.792,3042006,19:00:45,63.196,-24.747,387.38,-9,-9,1026.42,-9,8.07,7.31,35.13,374.61,0,374.61,3,11
AOML/SKOGAFOSS,SKO604,93.794,3042006,19:03:29,63.189,-24.762,386.69,-9,-9,1026.6,-9,8.06,7.31,35.13,374.19,0,374.19,3,11
AOML/SKOGAFOSS,SKO604,93.796,3042006,19:06:13,63.182,-24.776,387.04,-9,-9,1026.48,-9,8.06,7.3,35.13,374.29,0,374.29,3,11
AOML/SKOGAFOSS,SKO604,93.798,3042006,19:08:57,63.175,-24.791,387.23,-9,-9,1026.12,-9,8.07,7.31,35.13,374.35,0,374.35,3,11
AOML/SKOGAFOSS,SKO604,93.8,3042006,19:11:41,63.168,-24.806,387.37,-9,-9,1026.52,-9,8.08,7.31,35.13,374.44,0,374.44,3,11
AOML/SKOGAFOSS,SKO604,93.802,3042006,19:14:25,63.161,-24.821,386.58,-9,-9,1026.35,-9,8.06,7.3,35.13,373.83,0,373.83,3,11
AOML/SKOGAFOSS,SKO604,93.804,3042006,19:17:09,63.154,-24.836,386.69,-9,-9,1025.84,-9,8.06,7.29,35.13,373.57,0,373.57,3,11
AOML/SKOGAFOSS,SKO604,93.805,3042006,19:19:53,63.147,-24.85,386.92,-9,-9,1026.24,-9,8.06,7.31,35.12,374.17,0,374.17,3,11
AOML/SKOGAFOSS,SKO604,93.807,3042006,19:22:37,63.14,-24.865,387.68,-9,-9,1026.77,-9,8.06,7.3,35.12,374.94,0,374.94,3,11
AOML/SKOGAFOSS,SKO604,93.809,3042006,19:25:21,63.132,-24.88,387.78,-9,-9,1026.45,-9,8.05,7.29,35.11,375,0,375,3,11
AOML/SKOGAFOSS,SKO604,93.811,3042006,19:28:05,63.125,-24.894,388.22,-9,-9,1026.49,-9,8.04,7.28,35.11,375.48,0,375.48,3,11
AOML/SKOGAFOSS,SKO604,93.813,3042006,19:30:49,63.118,-24.909,388.41,-9,-9,1026.58,-9,8.05,7.29,35.11,375.67,0,375.67,3,11
AOML/SKOGAFOSS,SKO604,93.815,3042006,19:33:33,63.111,-24.923,387.71,-9,-9,1025.99,-9,8.08,7.32,35.11,374.73,0,374.73,3,11
AOML/SKOGAFOSS,SKO604,93.83,3042006,19:55:24,63.054,-25.041,-9,387.79,-9,1027.22,-9,8.16,7.39,35.1,-9,387.52,-9,3,11
AOML/SKOGAFOSS,SKO604,93.831,3042006,19:57:10,63.049,-25.05,-9,388.5,-9,1027.13,-9,8.14,7.39,35.09,-9,388.19,-9,3,11
AOML/SKOGAFOSS,SKO604,93.834,3042006,20:00:42,63.04,-25.07,-9,389.46,-9,1026.52,-9,8.15,7.39,35.08,-9,388.91,-9,3,11
AOML/SKOGAFOSS,SKO604,93.838,3042006,20:07:07,63.023,-25.105,391.89,-9,-9,1026.53,-9,8.2,7.43,35.08,378.84,0,378.84,3,11
AOML/SKOGAFOSS,SKO604,93.84,3042006,20:09:51,63.016,-25.12,391.69,-9,-9,1026.75,-9,8.19,7.43,35.09,378.79,0,378.79,3,11
AOML/SKOGAFOSS,SKO604,93.842,3042006,20:12:35,63.009,-25.134,391.33,-9,-9,1026.75,-9,8.17,7.42,35.08,378.6,0,378.6,3,11
AOML/SKOGAFOSS,SKO604,93.844,3042006,20:15:19,63.002,-25.149,390.23,-9,-9,1026.13,-9,8.22,7.47,35.08,377.32,0,377.32,3,11
AOML/SKOGAFOSS,SKO604,93.846,3042006,20:18:03,62.994,-25.163,390.17,-9,-9,1026.34,-9,8.24,7.48,35.08,377.17,0,377.17,3,11
AOML/SKOGAFOSS,SKO604,93.848,3042006,20:20:47,62.987,-25.177,390.31,-9,-9,1026.7,-9,8.24,7.47,35.08,377.39,0,377.39,3,11
AOML/SKOGAFOSS,SKO604,93.85,3042006,20:23:31,62.98,-25.192,390.37,-9,-9,1026.69,-9,8.23,7.48,35.08,377.76,0,377.76,3,11
AOML/SKOGAFOSS,SKO604,93.852,3042006,20:26:15,62.973,-25.206,390.22,-9,-9,1026.41,-9,8.23,7.49,35.08,377.55,0,377.55,3,11
AOML/SKOGAFOSS,SKO604,93.853,3042006,20:28:59,62.966,-25.221,390.3,-9,-9,1026.44,-9,8.24,7.49,35.08,377.57,0,377.57,3,11
AOML/SKOGAFOSS,SKO604,93.855,3042006,20:31:43,62.959,-25.236,390.12,-9,-9,1026.61,-9,8.25,7.49,35.08,377.19,0,377.19,3,11
AOML/SKOGAFOSS,SKO604,93.857,3042006,20:34:27,62.952,-25.25,389.86,-9,-9,1026.56,-9,8.25,7.49,35.08,376.91,0,376.91,3,11
AOML/SKOGAFOSS,SKO604,93.859,3042006,20:37:11,62.945,-25.265,389.65,-9,-9,1026.47,-9,8.23,7.49,35.08,377.03,0,377.03,3,11
AOML/SKOGAFOSS,SKO604,93.861,3042006,20:39:55,62.938,-25.28,389.7,-9,-9,1026.51,-9,8.24,7.48,35.08,376.88,0,376.88,3,11
AOML/SKOGAFOSS,SKO604,93.863,3042006,20:42:39,62.931,-25.294,389.54,-9,-9,1026.58,-9,8.26,7.48,35.08,376.44,0,376.44,3,11
AOML/SKOGAFOSS,SKO604,93.865,3042006,20:45:23,62.924,-25.309,389.75,-9,-9,1026.71,-9,8.24,7.47,35.08,376.78,0,376.78,3,11
AOML/SKOGAFOSS,SKO604,93.867,3042006,20:48:07,62.917,-25.324,389.54,-9,-9,1026.69,-9,8.22,7.47,35.08,376.95,0,376.95,3,11
AOML/SKOGAFOSS,SKO604,93.869,3042006,20:50:51,62.91,-25.338,389.47,-9,-9,1026.52,-9,8.24,7.48,35.08,376.64,0,376.64,3,11
AOML/SKOGAFOSS,SKO604,93.871,3042006,20:53:35,62.903,-25.353,389.62,-9,-9,1026.7,-9,8.25,7.48,35.08,376.69,0,376.69,3,11
AOML/SKOGAFOSS,SKO604,93.872,3042006,20:56:19,62.897,-25.368,389.76,-9,-9,1026.66,-9,8.25,7.48,35.08,376.74,0,376.74,3,11
AOML/SKOGAFOSS,SKO604,93.874,3042006,20:59:03,62.89,-25.384,390.21,-9,-9,1026.45,-9,8.24,7.48,35.08,377.35,0,377.35,3,11
AOML/SKOGAFOSS,SKO604,93.876,3042006,21:01:47,62.883,-25.399,390.55,-9,-9,1026.82,-9,8.23,7.48,35.08,377.86,0,377.86,3,11
AOML/SKOGAFOSS,SKO604,93.878,3042006,21:04:31,62.876,-25.414,390.09,-9,-9,1026.64,-9,8.23,7.46,35.08,377.13,0,377.13,3,11
AOML/SKOGAFOSS,SKO604,93.88,3042006,21:07:15,62.87,-25.43,389.83,-9,-9,1026.61,-9,8.21,7.44,35.08,376.76,0,376.76,3,11
AOML/SKOGAFOSS,SKO604,93.882,3042006,21:09:59,62.862,-25.445,389.33,-9,-9,1026.69,-9,8.22,7.44,35.08,376.27,0,376.27,3,11
AOML/SKOGAFOSS,SKO604,93.884,3042006,21:12:42,62.856,-25.46,389.09,-9,-9,1026.6,-9,8.2,7.44,35.09,376.22,0,376.22,3,11
AOML/SKOGAFOSS,SKO604,93.886,3042006,21:15:26,62.849,-25.475,388.59,-9,-9,1026.8,-9,8.19,7.42,35.08,375.75,0,375.75,3,11
AOML/SKOGAFOSS,SKO604,93.888,3042006,21:18:11,62.841,-25.489,387.65,-9,-9,1026.8,-9,8.22,7.46,35.08,374.91,0,374.91,3,11
AOML/SKOGAFOSS,SKO604,93.89,3042006,21:20:55,62.834,-25.504,387.34,-9,-9,1026.41,-9,8.25,7.48,35.08,374.34,0,374.34,3,11
AOML/SKOGAFOSS,SKO604,93.891,3042006,21:23:39,62.827,-25.52,387.13,-9,-9,1026.83,-9,8.23,7.48,35.08,374.6,0,374.6,3,11
AOML/SKOGAFOSS,SKO604,93.893,3042006,21:26:23,62.82,-25.535,387.27,-9,-9,1026.61,-9,8.24,7.48,35.08,374.43,0,374.43,3,11
AOML/SKOGAFOSS,SKO604,93.895,3042006,21:29:07,62.813,-25.551,386.76,-9,-9,1026.35,-9,8.25,7.48,35.08,373.83,0,373.83,3,11
AOML/SKOGAFOSS,SKO604,93.897,3042006,21:31:51,62.806,-25.566,386.89,-9,-9,1026.72,-9,8.25,7.48,35.08,374.03,0,374.03,3,11
AOML/SKOGAFOSS,SKO604,93.899,3042006,21:34:35,62.799,-25.582,387.87,-9,-9,1026.79,-9,8.26,7.48,35.08,374.89,0,374.89,3,11
AOML/SKOGAFOSS,SKO604,93.901,3042006,21:37:19,62.792,-25.597,388.64,-9,-9,1026.34,-9,8.23,7.48,35.08,375.94,0,375.94,3,11
AOML/SKOGAFOSS,SKO604,93.903,3042006,21:40:03,62.785,-25.613,389.25,-9,-9,1026.67,-9,8.25,7.49,35.08,376.5,0,376.5,3,11
AOML/SKOGAFOSS,SKO604,93.905,3042006,21:42:47,62.778,-25.628,389.77,-9,-9,1026.49,-9,8.25,7.49,35.08,376.84,0,376.84,3,11
AOML/SKOGAFOSS,SKO604,93.907,3042006,21:45:31,62.772,-25.643,389.61,-9,-9,1026.24,-9,8.27,7.5,35.08,376.4,0,376.4,3,11
AOML/SKOGAFOSS,SKO604,93.909,3042006,21:48:15,62.765,-25.658,389.82,-9,-9,1026.37,-9,8.14,7.37,35.08,376.71,0,376.71,3,11
AOML/SKOGAFOSS,SKO604,93.91,3042006,21:50:59,62.758,-25.673,389.57,-9,-9,1026.48,-9,8.15,7.39,35.08,376.65,0,376.65,3,11
AOML/SKOGAFOSS,SKO604,93.912,3042006,21:53:43,62.752,-25.687,388.75,-9,-9,1026.35,-9,8.18,7.4,35.08,375.59,0,375.59,3,11
AOML/SKOGAFOSS,SKO604,93.914,3042006,21:56:27,62.745,-25.702,388.88,-9,-9,1026.3,-9,8.17,7.38,35.08,375.55,0,375.55,3,11
AOML/SKOGAFOSS,SKO604,93.916,3042006,21:59:11,62.738,-25.717,389.21,-9,-9,1026.8,-9,8.16,7.39,35.08,376.29,0,376.29,3,11
AOML/SKOGAFOSS,SKO604,93.918,3042006,22:01:55,62.732,-25.732,389.39,-9,-9,1026.37,-9,8.16,7.39,35.08,376.26,0,376.26,3,11
AOML/SKOGAFOSS,SKO604,93.92,3042006,22:04:39,62.726,-25.747,389.8,-9,-9,1026.59,-9,8.12,7.34,35.08,376.73,0,376.73,3,11
AOML/SKOGAFOSS,SKO604,93.922,3042006,22:07:23,62.719,-25.761,389.17,-9,-9,1026.45,-9,8.12,7.34,35.08,375.97,0,375.97,3,11
AOML/SKOGAFOSS,SKO604,93.937,3042006,22:29:14,62.667,-25.873,-9,384.72,-9,1026.09,-9,8.15,7.38,35.08,-9,384.02,-9,3,11
AOML/SKOGAFOSS,SKO604,93.938,3042006,22:31:00,62.662,-25.882,-9,384.35,-9,1026.17,-9,8.15,7.38,35.08,-9,383.68,-9,3,11
AOML/SKOGAFOSS,SKO604,93.939,3042006,22:32:46,62.658,-25.891,-9,384.26,-9,1026.55,-9,8.15,7.39,35.08,-9,383.74,-9,3,11
AOML/SKOGAFOSS,SKO604,93.942,3042006,22:36:18,62.649,-25.909,-9,383.91,-9,1026.41,-9,8.15,7.37,35.08,-9,383.33,-9,3,11
AOML/SKOGAFOSS,SKO604,93.945,3042006,22:40:58,62.637,-25.933,386.37,-9,-9,1026.2,-9,8.19,7.39,35.08,372.92,0,372.92,3,11
AOML/SKOGAFOSS,SKO604,93.947,3042006,22:43:42,62.63,-25.948,387.62,-9,-9,1026.08,-9,8.14,7.36,35.08,374.38,0,374.38,3,11
AOML/SKOGAFOSS,SKO604,93.949,3042006,22:46:26,62.624,-25.962,387.93,-9,-9,1026.48,-9,8.13,7.37,35.07,375.11,0,375.11,3,11
AOML/SKOGAFOSS,SKO604,93.951,3042006,22:49:10,62.617,-25.976,386.92,-9,-9,1026.44,-9,8.18,7.41,35.08,373.93,0,373.93,3,11
AOML/SKOGAFOSS,SKO604,93.953,3042006,22:51:54,62.61,-25.99,387.27,-9,-9,1025.97,-9,8.2,7.41,35.08,373.87,0,373.87,3,11
AOML/SKOGAFOSS,SKO604,93.955,3042006,22:54:38,62.603,-26.004,386.84,-9,-9,1026.3,-9,8.23,7.46,35.08,373.8,0,373.8,3,11
AOML/SKOGAFOSS,SKO604,93.957,3042006,22:57:22,62.596,-26.017,386.95,-9,-9,1026.13,-9,8.26,7.54,35.07,374.61,0,374.61,3,11
AOML/SKOGAFOSS,SKO604,93.958,3042006,23:00:06,62.589,-26.03,385.86,-9,-9,1026.41,-9,8.33,7.57,35.08,373.03,0,373.03,3,11
AOML/SKOGAFOSS,SKO604,93.96,3042006,23:02:50,62.583,-26.044,386.14,-9,-9,1026.52,-9,8.37,7.59,35.09,373.06,0,373.06,3,11
AOML/SKOGAFOSS,SKO604,93.962,3042006,23:05:34,62.576,-26.058,385.93,-9,-9,1026.86,-9,8.39,7.62,35.09,373.07,0,373.07,3,11
AOML/SKOGAFOSS,SKO604,93.964,3042006,23:08:18,62.569,-26.072,386.99,-9,-9,1025.97,-9,8.37,7.59,35.09,373.69,0,373.69,3,11
AOML/SKOGAFOSS,SKO604,93.966,3042006,23:11:02,62.562,-26.087,388.35,-9,-9,1026.43,-9,8.35,7.59,35.08,375.4,0,375.4,3,11
AOML/SKOGAFOSS,SKO604,93.968,3042006,23:13:46,62.555,-26.101,388.16,-9,-9,1026.24,-9,8.36,7.59,35.09,375.06,0,375.06,3,11
AOML/SKOGAFOSS,SKO604,93.97,3042006,23:16:30,62.548,-26.115,388.38,-9,-9,1026.53,-9,8.37,7.59,35.09,375.13,0,375.13,3,11
AOML/SKOGAFOSS,SKO604,93.972,3042006,23:19:14,62.542,-26.13,387.32,-9,-9,1025.99,-9,8.36,7.58,35.09,374.03,0,374.03,3,11
AOML/SKOGAFOSS,SKO604,93.974,3042006,23:21:58,62.535,-26.144,387.62,-9,-9,1026.3,-9,8.35,7.58,35.09,374.5,0,374.5,3,11
AOML/SKOGAFOSS,SKO604,93.975,3042006,23:24:42,62.528,-26.158,388.07,-9,-9,1025.84,-9,8.35,7.59,35.09,374.92,0,374.92,3,11
AOML/SKOGAFOSS,SKO604,93.977,3042006,23:27:26,62.521,-26.171,388.21,-9,-9,1025.96,-9,8.36,7.59,35.09,374.98,0,374.98,3,11
AOML/SKOGAFOSS,SKO604,93.979,3042006,23:30:10,62.514,-26.185,389.06,-9,-9,1025.88,-9,8.37,7.58,35.09,375.42,0,375.42,3,11
AOML/SKOGAFOSS,SKO604,93.981,3042006,23:32:54,62.507,-26.198,390.42,-9,-9,1025.86,-9,8.36,7.59,35.08,377.02,0,377.02,3,11
AOML/SKOGAFOSS,SKO604,93.983,3042006,23:35:38,62.5,-26.212,390.08,-9,-9,1026.15,-9,8.37,7.6,35.09,376.86,0,376.86,3,11
AOML/SKOGAFOSS,SKO604,93.985,3042006,23:38:22,62.493,-26.226,389.98,-9,-9,1026.13,-9,8.36,7.58,35.09,376.66,0,376.66,3,11
AOML/SKOGAFOSS,SKO604,93.987,3042006,23:41:06,62.487,-26.24,389.73,-9,-9,1026.06,-9,8.36,7.56,35.09,375.97,0,375.97,3,11
AOML/SKOGAFOSS,SKO604,93.989,3042006,23:43:50,62.48,-26.254,389.55,-9,-9,1026.45,-9,8.32,7.54,35.08,376.24,0,376.24,3,11
AOML/SKOGAFOSS,SKO604,93.991,3042006,23:46:34,62.473,-26.268,388.73,-9,-9,1025.47,-9,8.33,7.56,35.08,375.39,0,375.39,3,11
AOML/SKOGAFOSS,SKO604,93.993,3042006,23:49:18,62.466,-26.281,388.42,-9,-9,1025.94,-9,8.34,7.56,35.09,375.02,0,375.02,3,11
AOML/SKOGAFOSS,SKO604,93.994,3042006,23:52:02,62.46,-26.295,388.61,-9,-9,1025.81,-9,8.34,7.55,35.08,375.02,0,375.02,3,11
AOML/SKOGAFOSS,SKO604,93.996,3042006,23:54:46,62.453,-26.309,388.49,-9,-9,1025.81,-9,8.33,7.54,35.08,374.95,0,374.95,3,11
AOML/SKOGAFOSS,SKO604,93.998,3042006,23:57:30,62.446,-26.324,388.35,-9,-9,1026.05,-9,8.3,7.53,35.08,375.21,0,375.21,3,11
AOML/SKOGAFOSS,SKO604,94,4042006,0:00:14,62.439,-26.338,387.86,-9,-9,1026.06,-9,8.32,7.53,35.08,374.39,0,374.39,3,11
AOML/SKOGAFOSS,SKO604,94.002,4042006,0:02:58,62.433,-26.353,388.01,-9,-9,1025.63,-9,8.31,7.52,35.08,374.42,0,374.42,3,11